Regional Weather Roundup
Issued by NWS

Home | Current Version | Previous Version | Graphics & Text | Print | Product List | Glossary Off
Versions: 1 2 3 4 5 6 7 8 9 10 11 12 13 14 15 16 17 18 19 20 21 22 23 24 25 26 27 28 29 30 31 32 33 34 35 36 37 38 39 40 41 42 43 44 45 46 47 48 49 50

000
ASUS43 KLOT 182021
RWRIL

ILLINOIS REGIONAL WEATHER ROUNDUP
NATIONAL WEATHER SERVICE CHICAGO/ROMEOVILLE IL
300 PM CDT SAT APR 18 2015

NOTE: "FAIR" INDICATES FEW OR NO CLOUDS BELOW 12,000 FEET WITH NO
SIGNIFICANT WEATHER AND/OR OBSTRUCTIONS TO VISIBILITY.

* THESE STATIONS ARE NOT UNDER NWS QUALITY CONTROL. THEY ALSO MAY NOT
  REPORT WEATHER SUCH AS PRECIPITATION OR FOG.

ILZ001-002-007-009-015-016-024-182100-
NORTHWEST ILLINOIS

CITY           SKY/WX    TMP DP  RH WIND       PRES   REMARKS
MOLINE         PTSUNNY   75  53  46 NE23      29.91F
STERLING*      PTSUNNY   77  46  33 E16G23    29.96F
SAVANNA*       PTSUNNY   78  37  22 E17G25    29.98F
$$

ILZ003-004-008-010-011-017-018-182100-
NORTH CENTRAL ILLINOIS

CITY           SKY/WX    TMP DP  RH WIND       PRES   REMARKS
ROCKFORD       PTSUNNY   72  34  24 E16G23    30.03F
FREEPORT*      PTSUNNY   70  37  29 E16G22    30.04F
ROCHELLE*      MOSUNNY   73  38  28 E14G22    30.01F
DE KALB*       PTSUNNY   70  39  32 E14G20    30.03F
PERU*          CLOUDY    76  48  36 E13G18    29.98F
$$

ILZ005-006-012>014-019>023-182100-
NORTHEAST ILLINOIS

CITY           SKY/WX    TMP DP  RH WIND       PRES   REMARKS
CHICAGO-OHARE  PTSUNNY   56  37  49 NE15      30.06F
CHICAGO-MIDWAY CLOUDY    59  38  45 NE14      30.05F
AURORA         PTSUNNY   69  42  37 E14       30.02F
LANSING*       CLOUDY    49  37  63 N10       30.06F
JOLIET*        PTSUNNY   69  46  43 NE12      30.02F
WAUKEGAN       MOSUNNY   54  37  52 N18G24    30.07F
DUPAGE AIRPORT PTSUNNY   64  40  41 E15       30.03F
KANKAKEE*      CLOUDY    75  52  45 NE10      30.00F
WHEELING       MOSUNNY   56  36  47 NE16      30.08F
MORRIS*        PTSUNNY   75  45  34 E14       29.99F
ROMEOVILLE*    PTSUNNY   66  41  40 NE15      30.02F
NORTHERLY ISL    N/A     46  38  73 N17         N/A
$$

LMZ740>746-182100-
SOUTHERN LAKE MICHIGAN

STATION/POSITION SKY/WX   TEMP    WIND        PRES    VSBY  WAVE
                          AIR SEA DIR/SP/G                  HT/PER
                          (F)     (DEG/KT/KT) (MB)    (MI)  (FT/S)
HARRISON CRIB              40     350/ 20/ 23   N/A
BURNHAM HARBOR             45     340/ 17/ 19   N/A
CALUMET HARBOR             45     330/ 16/ 20   N/A
BURNS HARBOR               42     350/  8/ 11 1019.3F
MICHIGAN CITY              44     280/  5/  6   N/A
MICHIGAN CITY 6N           41 47  330/  4/  6   N/A           2/ 3
$$

ILZ025>027-034>036-040-047-049-050-058-095>099-182100-
WEST-CENTRAL ILLINOIS

CITY           SKY/WX    TMP DP  RH WIND       PRES   REMARKS
QUINCY         MOSUNNY   78  54  43 SE18      29.91F
GALESBURG*     MOSUNNY   78  51  38 SE13G18   29.93F
MACOMB*        PTSUNNY   80  51  35 SE16G24   29.94F
JACKSONVILLE*  MOSUNNY   80  55  41 SE17G24   29.94S HX  80
PITTSFIELD*    MOSUNNY   80  53  38 SE14G23   29.94S HX  80
$$

ILZ028>032-037-038-041>044-048-051>054-059>061-182100-
CENTRAL ILLINOIS

CITY           SKY/WX    TMP DP  RH WIND       PRES   REMARKS
PONTIAC        CLOUDY    80  55  41 E9G17     29.98F HX  80
BLOOMINGTON    PTSUNNY   80  50  35 SE12G18   29.96F
DECATUR        PTSUNNY   77  48  35 SE15      29.95F
PEORIA         CLOUDY    80  50  34 SE14G21   29.94F HX  80
LACON*         PTSUNNY   74  54  49 NE9       29.95F
LINCOLN*       MOSUNNY   82  47  29 SE12G21   29.91F HX  80
SPRINGFIELD    MOSUNNY   81  51  35 SE16G25   29.94F HX  80
TAYLORVILLE    PTSUNNY   75  52  43 SE13      29.95F
$$

ILZ033-039-045-046-055>057-062-063-182100-
EAST-CENTRAL ILLINOIS

CITY           SKY/WX    TMP DP  RH WIND       PRES   REMARKS
CHAMPAIGN      PTSUNNY   80  44  27 E17G25    29.97F
DANVILLE*      PTSUNNY   78  51  38 SE9       29.96F
RANTOUL*       PTSUNNY   80  47  31 E12G20    29.97F
MATTOON        CLOUDY    73  51  46 SE8       29.97F
PARIS*         CLOUDY    75  50  41 SE9       29.99F
$$

ILZ079-100>102-182100-
SOUTHWEST ILLINOIS

CITY           SKY/WX    TMP DP  RH WIND       PRES   REMARKS
BELLEVILLE     CLOUDY    77  62  60 SE7       29.91F
CAHOKIA*       CLOUDY    77  59  53 SE9       29.92F
SPARTA*        CLOUDY    76  58  54 SE9       29.93F
$$

ILZ064>066-069>071-074>076-080>082-084>086-088>090-092>094-182100-
SOUTH-CENTRAL ILLINOIS

CITY           SKY/WX    TMP DP  RH WIND       PRES   REMARKS
CARBONDALE     CLOUDY    77  57  50 SE8       29.91F
CAIRO*         PTSUNNY   79  60  52 E9        29.90F HX  80
EFFINGHAM*     CLOUDY    76  48  38 E7        29.98F
MARION         PTSUNNY   79  57  47 E14       29.93F HX  80
MT. VERNON     CLOUDY    79  55  44 SE7       29.94F
CENTRALIA*     CLOUDY    80  53  39 SE7       29.94F HX  80
SALEM*         CLOUDY    79  55  44 E8        29.95F
METROPOLIS*    PTSUNNY   79  57  46 SE8       29.91F HX  80
$$

ILZ067-068-072-073-078-083-087-091-182100-
SOUTHEAST ILLINOIS

CITY           SKY/WX    TMP DP  RH WIND       PRES   REMARKS
LAWRENCEVILLE  CLOUDY    78  52  40 E6        29.96F
FLORA*         CLOUDY    76  55  46 SE10      29.95F
FAIRFIELD*     CLOUDY    78  57  48 E6        29.93F
HARRISBURG*    MOSUNNY   78  58  49 E10       29.94F
ROBINSON*      CLOUDY    77  47  34 E7        29.97F
CARMI*         PTSUNNY   78  50  37 E7        29.93F
$$

ABBREVIATIONS USED IN REMARKS
   TC - TEMPERATURE IN CELSIUS
  WCI - WIND CHILL INDEX
   HX - HEAT INDEX
  VSB - VISIBILITY
$$




USA.gov is the U.S. government's official web portal to all federal, state and local government web resources and services.